TimeCDT,TemperatureF,Dew PointF,Humidity,Sea Level PressureIn,VisibilityMPH,Wind Direction,Wind SpeedMPH,Gust SpeedMPH,PrecipitationIn,Events,Conditions,WindDirDegrees,DateUTC
12:52 AM,23.0,19.0,85,30.37,10.0,Calm,Calm,-,N/A,,Clear,0,2013-03-14 05:52:00
1:52 AM,21.9,18.0,85,30.37,10.0,Calm,Calm,-,N/A,,Clear,0,2013-03-14 06:52:00
2:52 AM,23.0,19.0,85,30.34,10.0,Calm,Calm,-,N/A,,Clear,0,2013-03-14 07:52:00
3:52 AM,23.0,18.0,81,30.32,10.0,Calm,Calm,-,N/A,,Clear,0,2013-03-14 08:52:00
4:52 AM,25.0,19.9,81,30.30,10.0,East,4.6,-,N/A,,Overcast,100,2013-03-14 09:52:00
5:52 AM,26.1,19.9,78,30.32,10.0,Calm,Calm,-,N/A,,Overcast,0,2013-03-14 10:52:00
6:52 AM,27.0,21.0,78,30.32,10.0,East,3.5,-,N/A,,Overcast,100,2013-03-14 11:52:00
7:52 AM,27.0,21.0,78,30.31,10.0,ESE,4.6,-,N/A,,Overcast,110,2013-03-14 12:52:00
8:52 AM,30.0,21.9,72,30.30,10.0,SE,5.8,-,N/A,,Overcast,130,2013-03-14 13:52:00
9:52 AM,30.9,21.9,69,30.27,10.0,SE,11.5,-,N/A,,Overcast,130,2013-03-14 14:52:00
10:52 AM,33.1,23.0,66,30.25,10.0,SSE,9.2,-,N/A,,Overcast,160,2013-03-14 15:52:00
11:52 AM,37.0,25.0,62,30.20,10.0,SSE,13.8,19.6,N/A,,Scattered Clouds,150,2013-03-14 16:52:00
12:52 PM,41.0,26.1,55,30.17,10.0,SSE,18.4,-,N/A,,Partly Cloudy,160,2013-03-14 17:52:00
1:52 PM,42.1,27.0,55,30.15,10.0,SE,12.7,-,N/A,,Mostly Cloudy,140,2013-03-14 18:52:00
2:52 PM,44.1,28.0,53,30.15,10.0,SE,11.5,-,N/A,,Clear,140,2013-03-14 19:52:00
3:52 PM,45.0,28.9,53,30.12,10.0,SSE,12.7,-,N/A,,Clear,150,2013-03-14 20:52:00
4:52 PM,46.0,28.9,51,30.13,10.0,SE,9.2,-,N/A,,Clear,130,2013-03-14 21:52:00
5:52 PM,44.1,30.0,58,30.11,10.0,SE,9.2,-,N/A,,Clear,130,2013-03-14 22:52:00
6:52 PM,39.0,30.0,70,30.13,10.0,ESE,8.1,-,N/A,,Clear,110,2013-03-14 23:52:00
7:52 PM,36.0,28.9,76,30.13,10.0,East,8.1,-,N/A,,Clear,90,2013-03-15 00:52:00
8:52 PM,34.0,28.0,79,30.12,10.0,East,5.8,-,N/A,,Clear,100,2013-03-15 01:52:00
9:52 PM,30.0,26.1,85,30.11,10.0,East,3.5,-,N/A,,Clear,100,2013-03-15 02:52:00
10:52 PM,33.1,27.0,78,30.07,10.0,South,5.8,-,N/A,,Clear,170,2013-03-15 03:52:00
11:52 PM,35.1,28.9,78,30.07,10.0,Calm,Calm,-,N/A,,Clear,0,2013-03-15 04:52:00